This demonstration page uses our WeatherBlox Daily Observations layout. Learn more.

Left ArrowRight Arrow

Hourly Observations for March 30, 2023

Temp ( °F °C ) Dew Point ( °F °C ) Humidity (%) Winds ( mph kmh ) Pressure ( in mb ) Visibility ( mi km ) Precip ( " mm )
12:53 am 00:53 Cloudy 46 7.8 43 6.1 89 89 NNE 5 7 29.85 1011 10 16 0.00 0.00
1:53 am 01:53 Cloudy 47 8.3 44 6.7 90 90 ENE 6 9 29.85 1011 10 16 0.00 0.00
2:43 am 02:43 Cloudy 47 8.3 45 7.2 93 93 E 6 9 29.87 1011 10 16 0.01 0.13
2:53 am 02:53 Cloudy with Light Rain 47 8.3 44 6.7 90 90 ESE 7 11 29.86 1011 10 16 0.01 0.13
3:04 am 03:04 Cloudy 47 8.3 44 6.7 90 90 ESE 8 13 29.87 1011 10 16 0.01 0.13
3:17 am 03:17 Cloudy with Light Rain 47 8.3 43 6.1 86 86 ESE 9 15 29.87 1011 10 16 0.01 0.13
3:38 am 03:38 Cloudy with Light Rain 46 7.8 43 6.1 89 89 ESE 7 11 29.87 1011 10 16 0.01 0.13
3:53 am 03:53 Cloudy 46 7.8 43 6.1 89 89 ESE 6 9 29.86 1011 10 16 0.01 0.13
4:04 am 04:04 Cloudy 46 7.8 43 6.1 89 89 ESE 6 9 29.88 1012 10 16 0.00 0.00
4:22 am 04:22 Cloudy 46 7.8 43 6.1 89 89 SE 3 6 29.88 1012 10 16 0.00 0.00
4:53 am 04:53 Cloudy 47 8.3 44 6.7 90 90 Calm 29.87 1012 10 16 0.00 0.00
5:17 am 05:17 Cloudy 46 7.8 44 6.7 93 93 NNW 3 6 29.89 1012 10 16 0.00 0.00
5:53 am 05:53 Cloudy with Light Rain 46 7.8 43 6.1 89 89 WNW 3 6 29.88 1012 8 13 0.01 0.13
6:53 am 06:53 Cloudy with Light Rain 45 7.2 43 6.1 93 93 NW 5 7 29.91 1013 10 16 0.02 0.51
7:03 am 07:03 Cloudy with Light Rain 45 7.2 43 6.1 93 93 NW 3 6 29.92 1013 10 16 0.01 0.13
7:24 am 07:24 Cloudy with Light Rain 45 7.2 43 6.1 93 93 NNW 5 7 29.93 1013 3 5 0.02 0.51
7:35 am 07:35 Cloudy with Light Rain 45 7.2 43 6.1 93 93 NW 3 6 29.94 1014 3 4 0.02 0.51
7:44 am 07:44 Cloudy with Light Rain 45 7.2 43 6.1 93 93 WNW 3 6 29.94 1014 6 10 0.02 0.51
7:53 am 07:53 Cloudy with Light Rain 45 7.2 43 6.1 93 93 NW 5 7 29.93 1014 7 11 0.02 0.51
8:10 am 08:10 Cloudy with Light Rain 45 7.2 43 6.1 93 93 NW 7 11 29.95 1014 3 5 0.02 0.51
8:37 am 08:37 Cloudy 46 7.8 44 6.7 93 93 N 7 11 29.96 1014 8 13 0.02 0.51
8:53 am 08:53 Cloudy 47 8.3 44 6.7 90 90 NNE 6 9 29.96 1014 10 16 0.02 0.51
9:13 am 09:13 Cloudy 48 8.9 45 7.2 89 89 N 6 9 29.96 1015 10 16 0.00 0.00
9:26 am 09:26 Cloudy 48 8.9 44 6.7 86 86 N 6 9 29.98 1015 10 16 0.00 0.00
9:34 am 09:34 Cloudy 48 8.9 44 6.7 86 86 N 6 9 29.98 1015 10 16 0.00 0.00
9:45 am 09:45 Mostly Cloudy 49 9.4 43 6.1 80 80 NNE 5 7 29.98 1015 10 16 0.00 0.00
9:53 am 09:53 Mostly Cloudy 49 9.4 43 6.1 80 80 NNE 5 7 29.97 1015 10 16 0.00 0.00
10:21 am 10:21 Mostly Cloudy 52 11.1 43 6.1 71 71 NE 6 9 29.98 1015 10 16 0.00 0.00
10:28 am 10:28 Mostly Cloudy 52 11.1 43 6.1 71 71 NW 8 13 29.99 1016 10 16 0.00 0.00
10:53 am 10:53 Cloudy 49 9.4 43 6.1 80 80 WNW 5 7 30.00 1016 10 16 0.01 0.13
11:15 am 11:15 Cloudy 50 10 42 5.6 74 74 NNW 7 11 30.01 1016 10 16 0.00 0.00
11:53 am 11:53 Sunny 52 11.1 42 5.6 69 69 VRB 3 6 30.01 1016 10 16 0.00 0.00
12:53 pm 12:53 Mostly Cloudy 55 12.8 43 6.1 64 64 W 8 13 30.02 1017 10 16 0.00 0.00
1:53 pm 13:53 Cloudy 54 12.2 43 6.1 66 66 NW 10 17 30.03 1017 10 16 0.00 0.00
2:53 pm 14:53 Mostly Cloudy 56 13.3 43 6.1 62 62 NNW 8 13 30.03 1017 10 16 0.00 0.00
3:53 pm 15:53 Partly Cloudy 57 13.9 43 6.1 59 59 NNW 7 11 30.03 1017 10 16 0.00 0.00
4:53 pm 16:53 Sunny 57 13.9 40 4.4 53 53 WNW 5 7 30.03 1017 10 16 0.00 0.00
5:53 pm 17:53 Mostly Sunny 58 14.4 41 5 53 53 WNW 6 9 30.03 1017 10 16 0.00 0.00
6:53 pm 18:53 Sunny 55 12.8 40 4.4 57 57 N 6 9 30.04 1017 10 16 0.00 0.00
7:53 pm 19:53 Clear 52 11.1 42 5.6 69 69 N 3 6 30.06 1018 10 16 0.00 0.00
8:53 pm 20:53 Clear 49 9.4 43 6.1 80 80 Calm 30.08 1019 10 16 0.00 0.00
9:53 pm 21:53 Clear 47 8.3 43 6.1 86 86 Calm 30.11 1020 10 16 0.00 0.00
10:53 pm 22:53 Clear 47 8.3 42 5.6 83 83 E 5 7 30.13 1020 10 16 0.00 0.00
11:53 pm 23:53 Clear 40 4.4 38 3.3 93 93 Calm 30.14 1021 10 16 0.00 0.00

Powered by Vaisala Xweather